Home > Weather > Porta Westfalica > Past weeks

Flag for Germany Weather for the Past 2 Weeks in Porta Westfalica, North Rhine-Westphalia, Germany

Now
39 °F

Partly sunny.


Feels Like: 31 °F
Forecast: 35 / 42 °F
Wind: 15 mph from West

Location: Bueckeburg

Current Time: Feb 11, 2016 at 10:33:44 AM

Latest Report: Feb 11, 2016 at 9:20 AM


Visibility: 5 mi

Pressure: 29.56 "Hg

Humidity: 87%

Dew point: 36 °F

Location of Porta WestfalicaLocation

Historic Weather in Porta Westfalica — Graph

°F

Porta Westfalica Temperature Yesterday

Maximum temperature yesterday: 41 °F (at 3:20 PM)
Minimum temperature yesterday: 36 °F (at 12:20 AM)
Average temperature yesterday: 39 °F

High & Low Weather Summary for the Past Weeks

 TemperatureHumidityPressure
High54 °F (Jan 27, 4:20 PM)100% (Jan 31, 9:20 PM)30.27 "Hg (Jan 31, 9:20 PM)
Low34 °F (Feb 9, 10:20 PM)57% (Jan 28, 1:20 PM)28.80 "Hg (Feb 9, 6:20 PM)
Average44 °F81%29.75 "Hg
* Reported Jan 27 8:20 AM — Feb 11 8:20 AM, Porta Westfalica, Weather by CustomWeather, © 2016

Note: Actual official high and low records may vary slightly from our data, if they occured in-between our weather recording intervals... More about our weather records

Advertising

Porta Westfalica Weather History for the Previous 24 Hours

 ConditionsComfort  
Time TempWeatherWind HumidityBarometerVisibility
8:20 AM
Thu, Feb 11
37 °FScattered clouds.15 mph87%29.56 "HgN/A
7:20 AM37 °FPassing clouds.14 mph87%29.53 "HgN/A
6:20 AM39 °FPartly cloudy.16 mph87%29.53 "HgN/A
5:20 AM39 °FPassing clouds.17 mph81%29.50 "HgN/A
4:20 AM39 °FPartly cloudy.15 mph87%29.50 "HgN/A
3:20 AM39 °FPassing clouds.14 mph87%29.50 "HgN/A
2:20 AM41 °FPassing clouds.14 mph81%29.50 "HgN/A
1:20 AM41 °FPassing clouds.16 mph81%29.47 "HgN/A
12:20 AM41 °FPassing clouds.20 mph81%29.45 "HgN/A
11:20 PM
Wed, Feb 10
41 °FPartly cloudy.17 mph87%29.42 "HgN/A
10:20 PM41 °FPartly cloudy.18 mph87%29.39 "HgN/A
9:20 PM41 °FSprinkles. Partly cloudy.16 mph87%29.39 "HgN/A
8:20 PM41 °FPartly cloudy.14 mph87%29.36 "HgN/A
7:20 PM41 °FSprinkles. Partly cloudy.14 mph87%29.33 "Hg5 mi
6:20 PM41 °FPassing clouds.13 mph87%29.33 "HgN/A
5:20 PM41 °FBroken clouds.12 mph87%29.30 "HgN/A
4:20 PM41 °FPartly sunny.13 mph87%29.30 "HgN/A
3:20 PM41 °FPartly sunny.17 mph87%29.27 "HgN/A
2:20 PM39 °FLight rain. Partly sunny.14 mph93%29.27 "HgN/A
1:20 PM39 °FLight rain. Partly sunny.15 mph87%29.27 "Hg5 mi
12:20 PM39 °FPartly sunny.13 mph87%29.27 "HgN/A
11:20 AM37 °FPartly sunny.13 mph93%29.24 "HgN/A
10:20 AM37 °FPartly sunny.10 mph87%29.24 "HgN/A
Weather by CustomWeather, © 2016

See weather overviewHow to use our weather pages